STARLINK-1460, 45676

Orbit data source: Space-Track

STARLINK-1460, 45676 is a payload satellite owned by SpaceX/Seattle (US) in LEO that was launched on Thu, 04 Jun 2020 UTC via an FALCON 9 launch vehicle from the Air Force Eastern Test Range (AFETR). Payload-class satellites include a variety of spacecraft equipped with specific instruments for various scientific and technological missions. These include communications satellites like Starlink; space stations such as the ISS; scientific satellites like the Hubble; Earth observation satellites from companies like Planet Labs, Umbra, and HawkEye 360; GPS; miniature CubeSats for education and research; and military/defense satellites.

Loading next visibility...
Identifier
45676, 2020-035V
Orbit
LEO
Country
Flag of USUS
Related business
Manufacturer
SpaceX/Seattle
Mission
Partially operational Commercial Communications
Bus & Motor
STARLINK, Unknown motor
Mass
260 kg wet, ~248 kg dry
Launch date (UTC)
2020-06-04 (6 years ago)
Launch vehicle
FALCON 9
Launch site
Air Force Eastern Test Range (AFETR)
Object type
Payload
Rocket body
Debris
Shape & HBR
Box + 1 Pan, 10.1 m
Radar Cross Section
13.562 m², Large (>1 m²)

Expand to show TLE details & history
Last TLE update: 12 hours ago

TLE from 12 hours ago
0 STARLINK-1460
1 45676U 20035V   26170.09749312  .00041329  00000-0  11628-2 0  9998
2 45676  53.1575 312.4833 0001873 243.9143 116.1668 15.36103384334266
Epoch: 2026-06-19T02:20Z
TLE epoch observation values (Epoch: 2026-06-19T02:20:23.405Z)
Latitude
Longitude
10.05442°
Altitude
459.112 km
Speed
7.638 km/s
True Right ascension
20h 49m 55s
True Declination
0° 00' 00"
Sunlit
Object was in full shadow at epoch
Visualization orbit readout
Latitude
Unknown
Longitude
Unknown
Altitude
Unknown
Speed
Unknown
Apparent Right ascension
Unknown
Apparent Declination
Unknown
Sunlit
N/A
Visualization observer readout
Local Sidereal Time
01:13:49
Azimuth
Unknown
Elevation
Unknown
Doppler factor
Unknown
Orbital elements
Apogee altitude
459.183 km
Perigee altitude
456.622 km
Semi-major axis
6,836.04 km
Eccentricity
0.00019
Inclination
53.1575°
RAAN
312.4833°
Arg. of periapsis
243.9143°
True anomaly
116.18606°
Mean anomaly
116.1668°
Eccentric anomaly
116.17643°
Mean motion
3.84005 °/min
Orbital period
93.75 mins
BSTAR
0.0011628
Loading maneuver chart data...
Computing Atmospheric mass density...

Documentation

Showing up to 5 results
|